Weather in Yuzhnoe

Russia / Republic of Dagestan     43°48′58″N   46°43′28″E
temp.,
°C
wind,
m/s
gust,
m/s
humid.,
%
clouds,
%
prec.,
mm/h
press.,
hPa
HPBL,
m
21 april, wed
wed2100:00+13ese1185100 0.1 101011
03:00+13w3882100 0.2 1011178
06:00+14nw51182100 0.0 1013489
09:00+17wnw7968100 0.0 1016917
12:00+16nw81062100 0.0 1017768
15:00+16wnw6862100 0.2 1018965
18:00+14w5972100 0.6 1020461
21:00+12wsw4774100 0.6 1022189
22 april, thu
thu2200:00+11w4880100 0.0 1021208
03:00+12wnw3679100 0.1 1020226
06:00+12wnw3680100 0.0 1021246
09:00+14nw4673100 0.0 1021489
12:00+16nnw566391 0.0 10221026
15:00+17nnw5656100 0.0 10211228
18:00+14nw3571100 0.0 1022171
21:00+13nnw3576100 0.0 1022166
23 april, fri
fri2300:00+12nw3678100 0.0 1020196
03:00+12nw3678100 0.0 1020218
06:00+11wnw51090100 0.1 1022437
09:00+13nw5879100 0.1 1022573
12:00+12wnw5878100 0.0 1023661
15:00+17wnw565527 0.0 10221225
18:00+15nw46650 0.0 1022184
21:00+11nw11790 0.0 102110
24 april, sat
sat2400:00+10sse2385100 0.0 102019
03:00+9se3386100 0.0 101932
06:00+11e2484100 0.0 101990
09:00+16e3562100 0.0 1019693
12:00+20ese554913 0.0 10191400
15:00+20ese66450 0.0 10181244
18:00+15ese586271 0.0 1019340
21:00+10e498289 0.0 1020178
25 april, sun
sun2500:00+12ese41072100 0.0 1019257
03:00+10ese38785 0.0 1019153
06:00+11ese497784 0.0 1019236
09:00+18ese564740 0.0 1018818
12:00+21ese553799 0.0 10161346
15:00+21e5439100 0.0 10141431
18:00+17ne3657100 0.0 1014130
21:00+12ene2268100 0.0 101420